Location: Newark
(55.2875°N, 3.1864°W)
Time: 17:39:48
(UTC+00:00)

ISS - Pass Details

Date: 02 February 2020
Orbit: 415 x 422 km, 51.6° (Epoch: 23 February)

Event Time Altitude Azimuth Distance (km) Brightness Sun altitude
Rises 18:15:26 0° 270° (W) 2,381 1.9 -12.2°
Reaches altitude 10° 18:17:37 10° 262° (W) 1,514 0.6 -12.5°
Maximum altitude 18:20:47 38° 193° (SSW) 669 -2.5 -13.0°
Enters shadow 18:23:22 14° 128° (SE) 1,287 -1.7 -13.3°
